STARLINK-1295 (45373 NORAD) Tracking and Keplerian Element Data

This shows tracking and keplerian element data for the satellite.

Feedback or suggestion? Click here.




ElementValue
Catalog45373
NameSTARLINK-1295
Epoch Orbit1145
Epoch Day148.91667824
Epoch Year2020
RAAN286.7365
Inclination52.9988
Eccentricity0.0001372
Argument of Perigee79.6754
Mean Anonmoly102.1771
Mean Motion15.05572085
Decay Rate5.853E-05
L11 45373U 20019P 20148.91667824 .00005853 00000-0 42062-3 0 9990
L22 45373 52.9988 286.7365 0001372 79.6754 102.1771 15.05572085 11451

Live tracking and technical data element details for STARLINK-1295 (NORAD 45373). STARLINK-1295 can be tracked NOW for your location showing map with azimuth and elevation plus other details from your city location.

Track the satellite on the map from your city or location and see movement details for azimuth, elevation, latitude, longitude, range, height, and movement on the map or in text.







IsCatalogInMostPopularTable: catalog: 45373, numindb: 15
Update: records affected: 1



GetName: 45373 STARLINK-1295

Hit Count: updated at: Sat, 30 May 2020 15:12:57 GMT